Location: Sevilla
(37.3933°N, 5.9839°W)
Time: 05:51:38
(UTC+02:00)

Transit 2A Rocket - Pass Details

Date: 03 July 2024
Orbit: 582 x 910 km, 66.7° (Epoch: 15 July)

Event Time Altitude Azimuth Distance (km) Brightness Sun altitude
Rises 05:30:23 0° 328° (NNW) 3,541 8.6 -16.0°
Reaches altitude 10° 05:32:57 10° 325° (NW) 2,601 7.9 -15.7°
Maximum altitude 05:38:56 59° 247° (WSW) 1,031 5.3 -14.8°
Drops below altitude 10° 05:44:42 10° 169° (S) 2,510 7.3 -14.0°
Sets 05:47:08 0° 165° (SSE) 3,407 8.1 -13.7°
